SL-24 R/B

Satellite information

Favourite Embed

Satellite Type and Status

ROCKET BODYIN ORBIT

Key statistics

Satellite SL-24 R/B at a glance.

Uptime

5631

Days in orbit

Revolutions

≈ 13.9

Per day

Orbit

SSO

Sun Synchronous Orbit

Inclination

91.9

Latest

Satellite identification and parameters

Extended collection of information and parameters for SL-24 R/B.

Object identification

Identified? True

Debris? False

Object name: SL-24 R/B

International designator: 2010-013B

Object number (NORAD): 36509

Object ID (CCSDS): 36509

Country: COMMONWEALTH OF INDEPENDENT STATES (CIS)

Current information (Y/N): Y

RCS size: LARGE

Orbital parameters

Period: 103.315 minutes

Inclination: 91.9197 deg

SMA: 7293.476 km

Apoapsis: 1115.96 km

Periapsis: 714.722 km

RAAN: 20.1333 deg

Eccentricy: 0.02750662

Argument of periapsis: 35.6649 deg

Mean anomaly: 326.2561 deg

Mean motion: 13.93801518 rev/day

Mean motion (dot): 0.0000006 rev/day2

B* drag term: 0.000031079955 1/REarth

Two-line elements (TLE)

Creation date: Sept. 7, 2025, 3:09 a.m.

Reference frame: TEME

Reference center: EARTH

Epoch: Sept. 6, 2025, 10:19 p.m. UTC

TLE line 0: 0 SL-24 R/B

TLE line 1: 1 36509U 10013B 25249.93039281 .00000060 00000-0 31080-4 0 9997

TLE line 2: 2 36509 91.9197 20.1333 0275066 35.6649 326.2561 13.93801518783981

Live tracking on map

Real-time ground track for satellite SL-24 R/B.

In-orbit conjunctions

A list of the most updated potential collisions computed for object SL-24 R/B.

Target Orbit TCA Probability of collision Miss distance Type
SL-8 R/B LEO 2025-04-09 10:21:10 0.0001373698 94.0 (m) ROCKET BODY
THORAD DELTA 1 DEB SSO 2024-10-09 22:30:03 0.001431593 124.0 (m) DEBRIS

Associated space launch

SL-24 R/B was lifted into orbit during the mission ‘Dnepr 1 | Cryosat-2’, on board a Dnepr space rocket.

The launch took place on April 8, 2010, 1:57 p.m. from 109/95.

For more information about the launch, click the button.

Launch to space Dnepr 1 | Cryosat-2
Dnepr 1 | Cryosat-2

Agency: N/A

Status: Launch Successful

Launch date: April 8, 2010, 1:57 p.m. UTC

Rocket: Dnepr

Launch pad: 109/95

Location: Baikonur Cosmodrome, Republic of Kazakhstan

...

Latest news about this satellite

News about space launch
ESA’s Long-Serving CryoSat Satellite Avoids Early End to its Mission

The European Space Agency has avoided an early end to its CryoSat mission after a fuel leak was detected aboard the satellite. CryoSat was launched aboard a Dnepr rocket from Baikonur in April 2010. The satellite’s mission is dedicated to measuring the th...


Newsletter sign-up

Weekly statistics, charts and insights to help you stay on top of the space industry.